Weather History for KAMN - October, 2012

Change the Weather History Date:

Thursday, October 11, 2012

  Actual Average Record
Temperature  
Mean Temperature 44 °F -  
Max Temperature 60 °F 61 °F 80 °F (1949)
Min Temperature 28 °F 38 °F 22 °F (1964)
Degree Days  
Heating Degree Days 21    
Moisture  
Dew Point 34 °F    
Average Humidity 76    
Maximum Humidity 94    
Minimum Humidity 38    
Precipitation  
Precipitation 0.00 in - - ()
Sea Level Pressure  
Sea Level Pressure 30.08 in    
Wind  
Wind Speed 7 mph (SW)    
Max Wind Speed 26 mph    
Max Gust Speed 41 mph    
Visibility 10 miles    
Events Rain    
Averages and records for this station are not official NWS values.
T = Trace of Precipitation, MM = Missing Value Source: NWS Daily Summary

Daily Weather History Graph

Daily Weather History Graph

Search for Another Location

Airport or City:

Trip Planner

Search our weather history database for the weather conditions in past years. The results will help you decide how hot, cold, wet, or windy it might be!

Date:

Astronomy

Oct. 11, 2012 Rise Set
Actual Time 7:48 AM EDT 7:01 PM EDT
Civil Twilight 7:19 AM EDT 7:30 PM EDT
Nautical Twilight 6:46 AM EDT 8:03 PM EDT
Astronomical Twilight 6:13 AM EDT 8:36 PM EDT
Moon 3:19 AM EDT (10/11) 4:43 PM EDT (10/11)
Length of Visible Light 12h 10m
Length of Day
11h 13m
Waning Crescent, 18% of the Moon is Illuminated
Oct 11
Waning Crescent
Oct 15
New
Oct 21
First Quarter
Oct 29
Full
Nov 6
Last Quarter

Hourly Weather History & Observations

Time (EDT) Temp. Windchill Dew Point Humidity Pressure Visibility Wind Dir Wind Speed Gust Speed Precip Events Conditions
12:13 AM 32.0 °F 28.7 °F 27.3 °F 83% 30.13 in 10.0 mi SW 3.5 mph - N/A   Clear
12:33 AM 32.0 °F - 27.0 °F 82% 30.13 in 10.0 mi Calm Calm - N/A   Clear
12:52 AM 30.9 °F 27.5 °F 27.5 °F 87% 30.13 in 10.0 mi SW 3.5 mph - N/A   Clear
1:13 AM 30.0 °F - 26.8 °F 88% 30.14 in 10.0 mi Calm Calm - N/A   Clear
1:33 AM 29.1 °F 25.4 °F 26.2 °F 89% 30.14 in 10.0 mi SW 3.5 mph - N/A   Clear
1:53 AM 29.5 °F - 26.4 °F 88% 30.13 in 10.0 mi Calm Calm - N/A   Clear
2:13 AM 30.0 °F - 26.6 °F 87% 30.13 in 10.0 mi Calm Calm - N/A   Clear
2:33 AM 30.2 °F 26.7 °F 27.3 °F 89% 30.13 in 10.0 mi South 3.5 mph - N/A   Clear
2:53 AM 28.2 °F - 26.8 °F 94% 30.14 in 10.0 mi Calm Calm - N/A   Clear
3:13 AM 29.7 °F - 27.0 °F 90% 30.13 in 10.0 mi Calm Calm - N/A   Clear
3:33 AM 28.6 °F - 26.6 °F 92% 30.13 in 10.0 mi Calm Calm - N/A   Clear
3:53 AM 29.3 °F - 27.5 °F 93% 30.12 in 10.0 mi Calm Calm - N/A   Clear
4:14 AM 31.5 °F 24.9 °F 28.4 °F 88% 30.12 in 10.0 mi South 6.9 mph - N/A   Scattered Clouds
4:34 AM 32.0 °F 24.8 °F 29.3 °F 90% 30.11 in 10.0 mi South 8.1 mph - N/A   Mostly Cloudy
4:54 AM 32.2 °F 25.0 °F 29.7 °F 90% 30.11 in 10.0 mi South 8.1 mph - N/A   Mostly Cloudy
5:14 AM 32.0 °F 25.6 °F 29.5 °F 90% 30.11 in 10.0 mi South 6.9 mph - N/A   Scattered Clouds
5:34 AM 32.0 °F 25.6 °F 29.7 °F 91% 30.12 in 10.0 mi South 6.9 mph - N/A   Scattered Clouds
5:54 AM 32.9 °F 26.7 °F 30.2 °F 90% 30.11 in 10.0 mi South 6.9 mph - N/A   Overcast
6:14 AM 33.1 °F 27.7 °F 30.6 °F 90% 30.11 in 10.0 mi South 5.8 mph - N/A   Mostly Cloudy
6:34 AM 33.6 °F 27.5 °F 30.9 °F 90% 30.11 in 10.0 mi South 6.9 mph - N/A   Mostly Cloudy
6:55 AM 34.2 °F 28.2 °F 31.3 °F 89% 30.11 in 10.0 mi South 6.9 mph - N/A   Overcast
7:10 AM 34.2 °F 28.2 °F 31.5 °F 90% 30.11 in 10.0 mi South 6.9 mph - N/A   Mostly Cloudy
7:30 AM 34.2 °F 28.2 °F 31.5 °F 90% 30.09 in 10.0 mi South 6.9 mph - N/A   Scattered Clouds
7:50 AM 34.2 °F 29.0 °F 31.5 °F 90% 30.09 in 10.0 mi South 5.8 mph - N/A   Scattered Clouds
8:10 AM 34.7 °F 28.1 °F 31.6 °F 89% 30.09 in 10.0 mi South 8.1 mph - N/A   Scattered Clouds
8:30 AM 35.4 °F 28.4 °F 32.0 °F 87% 30.09 in 10.0 mi SSW 9.2 mph - N/A   Mostly Cloudy
8:50 AM 36.7 °F 28.9 °F 32.2 °F 84% 30.09 in 10.0 mi South 11.5 mph - N/A   Overcast
9:10 AM 38.5 °F 32.7 °F 32.9 °F 80% 30.09 in 10.0 mi SSW 8.1 mph - N/A   Overcast
9:30 AM 40.3 °F 33.9 °F 32.7 °F 74% 30.07 in 10.0 mi South 10.4 mph - N/A   Overcast
9:51 AM 43.7 °F 36.0 °F 31.6 °F 63% 30.07 in 10.0 mi SSW 17.3 mph 20.7 mph N/A   Scattered Clouds
10:11 AM 43.9 °F 37.5 °F 31.1 °F 61% 30.07 in 7.0 mi SSW 12.7 mph 20.7 mph N/A   Mostly Cloudy
10:31 AM 45.0 °F 38.5 °F 30.7 °F 57% 30.05 in 10.0 mi SSW 13.8 mph 24.2 mph N/A   Overcast
10:51 AM 46.0 °F 40.2 °F 31.5 °F 57% 30.05 in 10.0 mi SSW 12.7 mph 24.2 mph N/A   Overcast
11:11 AM 47.7 °F - 32.0 °F 55% 30.03 in 10.0 mi SSW 19.6 mph 27.6 mph N/A   Overcast
11:31 AM 49.3 °F - 33.1 °F 54% 30.03 in 10.0 mi SSW 15.0 mph 28.8 mph N/A   Mostly Cloudy
11:51 AM 52.0 °F - 34.0 °F 50% 30.02 in 10.0 mi SSW 15.0 mph 25.3 mph N/A   Scattered Clouds
12:12 PM 54.7 °F - 34.5 °F 47% 30.01 in 10.0 mi SSW 18.4 mph 24.2 mph N/A   Mostly Cloudy
12:32 PM 55.4 °F - 34.2 °F 45% 29.99 in 10.0 mi SW 20.7 mph 31.1 mph N/A   Scattered Clouds
12:52 PM 58.1 °F - 35.1 °F 42% 29.98 in 10.0 mi SSW 23.0 mph 27.6 mph N/A   Scattered Clouds
1:12 PM 58.1 °F - 34.9 °F 42% 29.99 in 10.0 mi WSW 21.9 mph 35.7 mph N/A   Mostly Cloudy
2:12 PM 60.1 °F - 34.7 °F 39% 29.97 in 10.0 mi SW 19.6 mph 32.2 mph N/A   Overcast
2:32 PM 59.0 °F - 33.6 °F 38% 29.97 in 10.0 mi WSW 25.3 mph 41.4 mph N/A   Overcast
2:53 PM 59.2 °F - 34.5 °F 40% 29.97 in 10.0 mi WSW 20.7 mph 35.7 mph N/A   Overcast
3:13 PM 57.7 °F - 34.5 °F 42% 29.98 in 10.0 mi West 26.5 mph 35.7 mph N/A   Overcast
3:33 PM 56.7 °F - 34.7 °F 44% 29.98 in 10.0 mi West 21.9 mph 35.7 mph N/A   Overcast
3:53 PM 56.7 °F - 35.4 °F 45% 29.99 in 10.0 mi West 20.7 mph 29.9 mph N/A   Overcast
4:13 PM 56.7 °F - 36.1 °F 46% 29.99 in 10.0 mi WSW 23.0 mph 34.5 mph N/A   Overcast
4:33 PM 55.9 °F - 36.3 °F 48% 29.99 in 10.0 mi WSW 18.4 mph 26.5 mph N/A   Overcast
4:54 PM 52.9 °F - 40.6 °F 63% 30.01 in 10.0 mi NW 18.4 mph 25.3 mph N/A   Overcast
5:14 PM 48.6 °F - 42.3 °F 79% 30.03 in 10.0 mi NW 15.0 mph 21.9 mph N/A Rain Light Rain
5:34 PM 47.5 °F - 41.5 °F 80% 30.04 in 10.0 mi WNW 13.8 mph 19.6 mph N/A   Drizzle
6:14 PM 46.8 °F - 42.3 °F 84% 30.03 in 10.0 mi West 8.1 mph - N/A   Overcast
6:34 PM 47.1 °F - 41.9 °F 82% 30.05 in 10.0 mi NW 6.9 mph - N/A   Light Drizzle
6:54 PM 46.4 °F 41.9 °F 41.9 °F 84% 30.06 in 10.0 mi NW 9.2 mph - N/A Rain Light Rain
7:14 PM 45.5 °F 41.8 °F 41.9 °F 87% 30.06 in 10.0 mi NNW 6.9 mph - N/A   Overcast
7:35 PM 45.1 °F 40.8 °F 41.4 °F 87% 30.07 in 10.0 mi NW 8.1 mph - N/A   Overcast
7:55 PM 44.6 °F 38.4 °F 41.2 °F 88% 30.08 in 10.0 mi NNW 12.7 mph 17.3 mph N/A   Light Drizzle
8:15 PM 44.1 °F 38.6 °F 40.5 °F 87% 30.10 in 10.0 mi NW 10.4 mph 18.4 mph N/A Rain Light Rain
8:35 PM 43.7 °F 39.1 °F 40.3 °F 88% 30.11 in 10.0 mi NW 8.1 mph - N/A   Drizzle
8:50 PM 43.5 °F 40.1 °F 40.1 °F 88% 30.11 in 10.0 mi NW 5.8 mph - N/A Rain Light Rain
9:10 PM 43.2 °F 41.5 °F 40.1 °F 89% 30.12 in 10.0 mi WNW 3.5 mph - N/A   Overcast
9:30 PM 43.0 °F - 40.3 °F 90% 30.13 in 10.0 mi Calm Calm - N/A   Overcast
9:50 PM 43.0 °F - 40.3 °F 90% 30.14 in 10.0 mi Calm Calm - N/A   Overcast
10:10 PM 43.0 °F - 40.1 °F 90% 30.14 in 10.0 mi Calm Calm - N/A   Overcast
10:31 PM 42.1 °F - 39.9 °F 92% 30.15 in 10.0 mi Calm Calm - N/A   Overcast
10:51 PM 42.8 °F 40.1 °F 39.4 °F 88% 30.17 in 10.0 mi NW 4.6 mph - N/A   Overcast
11:31 PM 42.1 °F 40.2 °F 38.5 °F 87% 30.17 in 10.0 mi West 3.5 mph - N/A   Overcast
11:51 PM 41.9 °F - 38.3 °F 87% 30.18 in 10.0 mi Calm Calm - N/A   Overcast